Wetterstation Hallschlag, 537 m . NN
Wetterdaten: Freitag, 24.11.2006
Datum Zeit Temp. A. Temp. 2 Feuchte A. Luftdruck Regen Wind Richtung Richtung Sonnenschein Helligkeit T Regen Taupunkt Windchill
24.11.2006 00:00 6,1 C 5,6 C 95 % 998 hPa 0,0 l/m 18,0 km/h (3 Bft) W-SW22.5 245 0 min 0 lux 0,00 min 5,4 C -1,0 C
24.11.2006 00:15 6,0 C 5,6 C 95 % 998 hPa 0,0 l/m 18,0 km/h (3 Bft) W-SW22.5 245 0 min 0 lux 0,00 min 5,3 C -1,1 C
24.11.2006 00:30 6,0 C 5,5 C 95 % 998 hPa 0,0 l/m 18,0 km/h (3 Bft) W-SW22.5 245 0 min 0 lux 0,00 min 5,3 C -1,1 C
24.11.2006 00:45 6,0 C 5,7 C 95 % 998 hPa 0,0 l/m 18,0 km/h (3 Bft) W-SW22.5 245 0 min 0 lux 0,00 min 5,3 C -1,1 C
24.11.2006 01:00 6,2 C 5,9 C 95 % 999 hPa 0,0 l/m 35,8 km/h (5 Bft) W-SW45 245 0 min 0 lux 0,00 min 5,5 C -6,0 C
24.11.2006 01:15 6,1 C 5,7 C 95 % 999 hPa 0,0 l/m 36,5 km/h (5 Bft) W-SW45 240 0 min 0 lux 0,00 min 5,4 C -6,3 C
24.11.2006 01:30 6,0 C 5,6 C 95 % 999 hPa 0,0 l/m 31,0 km/h (5 Bft) W-SW45 245 0 min 0 lux 0,00 min 5,3 C -5,2 C
24.11.2006 01:45 6,0 C 5,8 C 95 % 999 hPa 0,0 l/m 28,9 km/h (5 Bft) W-SW45 245 0 min 0 lux 0,00 min 5,3 C -4,7 C
24.11.2006 02:00 6,0 C 5,6 C 94 % 999 hPa 0,0 l/m 34,8 km/h (5 Bft) W-SW45 240 0 min 0 lux 0,00 min 5,1 C -6,1 C
24.11.2006 02:15 5,8 C 5,5 C 94 % 999 hPa 0,0 l/m 28,2 km/h (4 Bft) W-SW45 240 0 min 0 lux 0,00 min 4,9 C -4,8 C
24.11.2006 02:30 5,6 C 5,3 C 94 % 999 hPa 0,0 l/m 30,2 km/h (5 Bft) SW22.5 230 0 min 0 lux 0,00 min 4,7 C -5,6 C
24.11.2006 02:45 5,8 C 5,4 C 94 % 999 hPa 0,0 l/m 31,1 km/h (5 Bft) SW22.5 220 0 min 0 lux 0,00 min 4,9 C -5,5 C
24.11.2006 03:00 6,0 C 5,5 C 95 % 999 hPa 0,0 l/m 37,8 km/h (5 Bft) SW45 220 0 min 0 lux 0,00 min 5,3 C -6,6 C
24.11.2006 03:15 6,0 C 5,5 C 95 % 999 hPa 0,0 l/m 36,8 km/h (5 Bft) SW45 225 0 min 0 lux 0,00 min 5,3 C -6,5 C
24.11.2006 03:30 6,0 C 5,5 C 95 % 999 hPa 0,0 l/m 39,8 km/h (6 Bft) SW45 225 0 min 0 lux 0,00 min 5,3 C -7,0 C
24.11.2006 03:45 5,9 C 5,5 C 94 % 1000 hPa 0,0 l/m 34,6 km/h (5 Bft) S-SW67.5 210 0 min 0 lux 0,00 min 5,0 C -6,2 C
24.11.2006 04:00 5,9 C 5,4 C 94 % 1000 hPa 0,0 l/m 32,4 km/h (5 Bft) S-SW45 210 0 min 0 lux 0,00 min 5,0 C -5,7 C
24.11.2006 04:15 6,0 C 5,5 C 94 % 1000 hPa 0,0 l/m 39,4 km/h (6 Bft) SW45 215 0 min 0 lux 0,00 min 5,1 C -6,9 C
24.11.2006 04:30 6,1 C 5,6 C 94 % 1000 hPa 0,0 l/m 35,0 km/h (5 Bft) SW45 225 0 min 0 lux 0,00 min 5,2 C -6,0 C
24.11.2006 04:45 6,2 C 5,7 C 94 % 1000 hPa 0,0 l/m 32,9 km/h (5 Bft) SW45 230 0 min 0 lux 0,00 min 5,3 C -5,4 C
24.11.2006 05:00 6,2 C 5,8 C 94 % 1000 hPa 0,0 l/m 37,1 km/h (5 Bft) SW45 235 0 min 0 lux 0,00 min 5,3 C -6,2 C
24.11.2006 05:15 6,3 C 5,8 C 94 % 1000 hPa 0,0 l/m 31,7 km/h (5 Bft) SW67.5 230 0 min 0 lux 0,00 min 5,4 C -5,0 C
24.11.2006 05:30 6,4 C 6,0 C 94 % 1000 hPa 0,0 l/m 29,8 km/h (5 Bft) SW45 230 0 min 0 lux 0,00 min 5,5 C -4,4 C
24.11.2006 05:45 6,5 C 6,2 C 94 % 1001 hPa 0,0 l/m 30,3 km/h (5 Bft) SW22.5 220 0 min 0 lux 0,00 min 5,6 C -4,3 C
24.11.2006 06:00 6,5 C 6,1 C 94 % 1001 hPa 0,0 l/m 29,3 km/h (5 Bft) SW45 230 0 min 0 lux 0,00 min 5,6 C -4,1 C
24.11.2006 06:15 6,4 C 6,0 C 93 % 1001 hPa 0,0 l/m 32,0 km/h (5 Bft) SW45 220 0 min 0 lux 0,00 min 5,4 C -4,9 C
24.11.2006 06:30 6,3 C 5,9 C 94 % 1001 hPa 0,0 l/m 35,3 km/h (5 Bft) SW45 225 0 min 0 lux 0,00 min 5,4 C -5,7 C
24.11.2006 06:45 6,3 C 5,9 C 94 % 1001 hPa 0,0 l/m 35,0 km/h (5 Bft) SW45 220 0 min 0 lux 0,00 min 5,4 C -5,7 C
24.11.2006 07:00 6,4 C 6,0 C 94 % 1001 hPa 0,0 l/m 34,5 km/h (5 Bft) SW45 220 0 min 0 lux 0,00 min 5,5 C -5,4 C
24.11.2006 07:15 6,5 C 6,2 C 94 % 1001 hPa 0,0 l/m 33,5 km/h (5 Bft) SW67.5 230 0 min 0 lux 0,00 min 5,6 C -5,1 C
24.11.2006 07:30 6,4 C 6,0 C 94 % 1001 hPa 0,0 l/m 35,2 km/h (5 Bft) SW45 225 0 min 0 lux 0,00 min 5,5 C -5,6 C
24.11.2006 07:45 6,4 C 6,0 C 94 % 1002 hPa 0,0 l/m 24,1 km/h (4 Bft) SW45 215 0 min 59 lux 0,00 min 5,5 C -2,8 C
24.11.2006 08:00 6,4 C 6,1 C 94 % 1002 hPa 0,0 l/m 27,5 km/h (4 Bft) S-SW45 200 0 min 297 lux 0,00 min 5,5 C -3,8 C
24.11.2006 08:16 6,6 C 6,3 C 94 % 1002 hPa 0,0 l/m 28,4 km/h (4 Bft) SW45 215 0 min 810 lux 0,00 min 5,7 C -3,7 C
24.11.2006 08:30 6,7 C 6,2 C 94 % 1002 hPa 0,0 l/m 22,0 km/h (4 Bft) S22.5 175 0 min 1,59 klux 0,00 min 5,8 C -1,7 C
24.11.2006 08:45 6,8 C 6,4 C 94 % 1002 hPa 0,0 l/m 16,5 km/h (3 Bft) S22.5 185 0 min 1,86 klux 0,00 min 5,9 C 0,6 C
24.11.2006 09:00 6,9 C 6,5 C 94 % 1002 hPa 0,0 l/m 12,6 km/h (3 Bft) S-SW45 205 0 min 2,98 klux 0,00 min 6,0 C 2,6 C
24.11.2006 09:15 6,9 C 6,4 C 94 % 1002 hPa 0,0 l/m 17,7 km/h (3 Bft) SW45 215 0 min 4,25 klux 0,00 min 6,0 C 0,2 C
24.11.2006 09:30 7,0 C 6,7 C 94 % 1002 hPa 0,0 l/m 27,6 km/h (4 Bft) S-SW45 195 0 min 3,49 klux 0,00 min 6,1 C -3,0 C
24.11.2006 09:45 7,2 C 6,9 C 94 % 1002 hPa 0,0 l/m 24,8 km/h (4 Bft) SW45 215 0 min 3,24 klux 0,00 min 6,3 C -1,9 C
24.11.2006 10:00 7,4 C 7,2 C 94 % 1003 hPa 0,0 l/m 28,6 km/h (4 Bft) S-SW45 210 0 min 6,05 klux 0,00 min 6,5 C -2,7 C
24.11.2006 10:15 7,7 C 7,4 C 93 % 1002 hPa 0,0 l/m 23,1 km/h (4 Bft) S22.5 175 0 min 9,2 klux 0,00 min 6,6 C -0,7 C
24.11.2006 10:30 7,7 C 7,5 C 93 % 1002 hPa 0,0 l/m 18,1 km/h (3 Bft) S22.5 175 0 min 9,1 klux 0,00 min 6,6 C 1,0 C
24.11.2006 10:45 7,9 C 7,7 C 92 % 1002 hPa 0,0 l/m 21,4 km/h (4 Bft) S22.5 175 0 min 7,97 klux 0,00 min 6,7 C 0,1 C
24.11.2006 11:00 8,0 C 7,8 C 92 % 1002 hPa 0,0 l/m 21,6 km/h (4 Bft) S22.5 185 0 min 8,30 klux 0,00 min 6,8 C 0,2 C
24.11.2006 11:15 8,2 C 8,1 C 92 % 1002 hPa 0,0 l/m 21,5 km/h (4 Bft) S-SW45 200 0 min 14,6 klux 0,00 min 7,0 C 0,5 C
24.11.2006 11:30 8,6 C 8,5 C 91 % 1002 hPa 0,0 l/m 20,1 km/h (4 Bft) S45 185 0 min 14,6 klux 0,00 min 7,2 C 1,4 C
24.11.2006 11:45 9,1 C 9,1 C 90 % 1002 hPa 0,0 l/m 16,8 km/h (3 Bft) S-SW45 195 0 min 24,6 klux 0,00 min 7,5 C 3,3 C
24.11.2006 12:00 9,6 C 10,1 C 91 % 1002 hPa 0,0 l/m 17,4 km/h (3 Bft) S-SO22.5 160 0 min 38,8 klux 0,00 min 8,2 C 3,7 C
24.11.2006 12:15 9,8 C 10,6 C 89 % 1002 hPa 0,0 l/m 13,8 km/h (3 Bft) S-SO22.5 160 0 min 39,9 klux 0,00 min 8,1 C 5,4 C
24.11.2006 12:30 10,0 C 10,5 C 88 % 1001 hPa 0,0 l/m 20,8 km/h (4 Bft) S-SO45 160 0 min 35,7 klux 0,00 min 8,1 C 3,0 C
24.11.2006 12:45 9,5 C 9,9 C 88 % 1001 hPa 0,0 l/m 20,7 km/h (4 Bft) S-SO45 150 0 min 12,5 klux 0,00 min 7,6 C 2,4 C
24.11.2006 13:01 9,3 C 9,6 C 88 % 1001 hPa 0,0 l/m 20,3 km/h (4 Bft) SO45 145 0 min 10,4 klux 0,00 min 7,4 C 2,3 C
24.11.2006 13:15 9,0 C 9,2 C 89 % 1001 hPa 0,0 l/m 16,7 km/h (3 Bft) SO45 140 0 min 5,37 klux 0,00 min 7,3 C 3,2 C
24.11.2006 13:24 9,1 C 9,2 C 90 % 1001 hPa 0,0 l/m 19,8 km/h (3 Bft) S-SO45 155 0 min 7,22 klux 0,00 min 7,5 C 2,2 C
24.11.2006 13:39 9,1 C 9,1 C 90 % 1001 hPa 0,0 l/m 17,8 km/h (3 Bft) S22.5 175 0 min 6,87 klux 0,00 min 7,5 C 2,9 C
24.11.2006 13:54 9,2 C 9,0 C 90 % 1001 hPa 0,0 l/m 18,5 km/h (3 Bft) S67.5 175 0 min 3,66 klux 0,00 min 7,6 C 2,8 C
24.11.2006 14:09 9,2 C 9,1 C 91 % 1001 hPa 0,0 l/m 19,2 km/h (3 Bft) S22.5 175 0 min 5,52 klux 0,00 min 7,8 C 2,5 C
24.11.2006 14:24 9,4 C 9,1 C 91 % 1001 hPa 0,0 l/m 25,0 km/h (4 Bft) S22.5 185 0 min 4,74 klux 0,00 min 8,0 C 1,0 C
24.11.2006 14:39 9,4 C 9,1 C 91 % 1001 hPa 0,0 l/m 16,5 km/h (3 Bft) S22.5 175 0 min 2,07 klux 0,00 min 8,0 C 3,8 C
24.11.2006 14:54 9,4 C 9,2 C 92 % 1001 hPa 0,0 l/m 17,7 km/h (3 Bft) S22.5 185 0 min 2,42 klux 0,00 min 8,2 C 3,3 C
24.11.2006 15:09 9,5 C 9,3 C 92 % 1000 hPa 0,0 l/m 19,4 km/h (3 Bft) S22.5 175 0 min 2,63 klux 0,00 min 8,3 C 2,8 C
24.11.2006 15:24 9,6 C 9,2 C 93 % 1000 hPa 0,0 l/m 17,0 km/h (3 Bft) S22.5 175 0 min 2,14 klux 0,00 min 8,5 C 3,8 C
24.11.2006 15:39 9,6 C 9,2 C 93 % 1000 hPa 0,3 l/m 18,5 km/h (3 Bft) S22.5 175 0 min 1,83 klux 15,00 min 8,5 C 3,3 C
24.11.2006 15:54 9,6 C 9,3 C 94 % 1000 hPa 0,0 l/m 21,9 km/h (4 Bft) S22.5 175 0 min 1,10 klux 0,00 min 8,7 C 2,2 C
24.11.2006 16:09 9,6 C 9,3 C 94 % 1000 hPa 0,0 l/m 21,9 km/h (4 Bft) S22.5 175 0 min 823 lux 0,00 min 8,7 C 2,2 C
24.11.2006 16:24 9,7 C 9,3 C 94 % 1000 hPa 0,0 l/m 16,7 km/h (3 Bft) S22.5 180 0 min 263 lux 0,00 min 8,8 C 4,1 C
24.11.2006 16:39 9,8 C 9,5 C 94 % 1000 hPa 0,0 l/m 27,9 km/h (4 Bft) S45 180 0 min 171 lux 0,00 min 8,9 C 0,8 C
24.11.2006 16:54 9,8 C 9,6 C 94 % 1000 hPa 0,0 l/m 28,1 km/h (4 Bft) S45 180 0 min 49 lux 0,00 min 8,9 C 0,8 C
24.11.2006 17:09 10,0 C 9,6 C 94 % 1000 hPa 0,0 l/m 24,9 km/h (4 Bft) S45 175 0 min 16 lux 0,00 min 9,1 C 1,9 C
24.11.2006 17:24 10,1 C 9,8 C 94 % 1000 hPa 0,3 l/m 40,6 km/h (6 Bft) S45 185 0 min 0 lux 15,00 min 9,2 C -1,0 C
24.11.2006 17:39 10,2 C 9,8 C 94 % 1000 hPa 0,0 l/m 24,6 km/h (4 Bft) S45 180 0 min 0 lux 0,00 min 9,3 C 2,2 C
24.11.2006 17:54 10,2 C 9,9 C 94 % 1000 hPa 0,0 l/m 25,6 km/h (4 Bft) S22.5 180 0 min 0 lux 0,00 min 9,3 C 2,0 C
24.11.2006 18:09 10,2 C 9,8 C 94 % 1000 hPa 0,0 l/m 22,5 km/h (4 Bft) S45 180 0 min 0 lux 0,00 min 9,3 C 2,8 C
24.11.2006 18:24 10,2 C 9,9 C 94 % 1000 hPa 0,0 l/m 27,1 km/h (4 Bft) S22.5 185 0 min 0 lux 0,00 min 9,3 C 1,6 C
24.11.2006 18:39 10,3 C 9,9 C 94 % 1000 hPa 0,0 l/m 19,4 km/h (3 Bft) S22.5 190 0 min 0 lux 0,00 min 9,4 C 3,9 C
24.11.2006 18:54 10,3 C 9,9 C 94 % 1000 hPa 0,0 l/m 31,3 km/h (5 Bft) S22.5 185 0 min 0 lux 0,00 min 9,4 C 0,8 C
24.11.2006 19:09 10,3 C 10,0 C 94 % 1000 hPa 0,0 l/m 25,1 km/h (4 Bft) S22.5 175 0 min 0 lux 0,00 min 9,4 C 2,2 C
24.11.2006 19:24 10,3 C 10,0 C 94 % 1000 hPa 0,0 l/m 23,6 km/h (4 Bft) S22.5 180 0 min 0 lux 0,00 min 9,4 C 2,6 C
24.11.2006 19:39 10,3 C 10,0 C 94 % 1000 hPa 0,0 l/m 23,6 km/h (4 Bft) S22.5 180 0 min 0 lux 0,00 min 9,4 C 2,6 C
24.11.2006 20:01 10,3 C 10,0 C 94 % 1000 hPa 0,0 l/m 26,3 km/h (4 Bft) S45 175 0 min 0 lux 0,00 min 9,4 C 1,9 C
24.11.2006 20:16 10,3 C 10,0 C 94 % 999 hPa 0,3 l/m 26,8 km/h (4 Bft) S22.5 180 0 min 0 lux 15,00 min 9,4 C 1,8 C
24.11.2006 20:30 10,3 C 10,0 C 94 % 999 hPa 0,0 l/m 22,3 km/h (4 Bft) S22.5 185 0 min 0 lux 0,00 min 9,4 C 3,0 C
24.11.2006 20:45 10,1 C 9,7 C 94 % 999 hPa 0,0 l/m 14,6 km/h (3 Bft) S22.5 180 0 min 0 lux 0,00 min 9,2 C 5,4 C
24.11.2006 21:00 9,8 C 9,4 C 94 % 999 hPa 0,0 l/m 17,6 km/h (3 Bft) S22.5 175 0 min 0 lux 0,00 min 8,9 C 3,9 C
24.11.2006 21:15 9,8 C 9,4 C 94 % 999 hPa 0,0 l/m 27,9 km/h (4 Bft) S45 180 0 min 0 lux 0,00 min 8,9 C 0,8 C
24.11.2006 21:30 9,9 C 9,5 C 94 % 999 hPa 0,0 l/m 22,3 km/h (4 Bft) S22.5 180 0 min 0 lux 0,00 min 9,0 C 2,4 C
24.11.2006 21:45 10,1 C 9,7 C 93 % 999 hPa 0,0 l/m 22,3 km/h (4 Bft) S22.5 180 0 min 0 lux 0,00 min 9,0 C 2,7 C
24.11.2006 22:00 10,3 C 9,8 C 93 % 1000 hPa 0,0 l/m 22,3 km/h (4 Bft) S22.5 180 0 min 0 lux 0,00 min 9,2 C 3,0 C
24.11.2006 22:15 10,2 C 9,9 C 92 % 1000 hPa 0,0 l/m 22,0 km/h (4 Bft) S22.5 175 0 min 0 lux 0,00 min 9,0 C 2,9 C
24.11.2006 22:30 10,2 C 9,9 C 92 % 999 hPa 0,0 l/m 20,0 km/h (4 Bft) S22.5 170 0 min 0 lux 0,00 min 9,0 C 3,5 C
24.11.2006 22:45 10,1 C 9,8 C 92 % 999 hPa 0,0 l/m 25,1 km/h (4 Bft) S22.5 170 0 min 0 lux 0,00 min 8,9 C 1,9 C
24.11.2006 23:00 10,0 C 9,7 C 92 % 999 hPa 0,0 l/m 22,5 km/h (4 Bft) S45 170 0 min 0 lux 0,00 min 8,8 C 2,5 C
24.11.2006 23:15 10,0 C 9,6 C 92 % 999 hPa 0,0 l/m 19,8 km/h (3 Bft) S-SO22.5 160 0 min 0 lux 0,00 min 8,8 C 3,4 C
24.11.2006 23:30 10,1 C 9,7 C 92 % 999 hPa 0,0 l/m 22,4 km/h (4 Bft) S22.5 170 0 min 0 lux 0,00 min 8,9 C 2,7 C
24.11.2006 23:45 10,3 C 10,0 C 92 % 999 hPa 0,0 l/m 28,7 km/h (4 Bft) S22.5 180 0 min 0 lux 0,00 min 9,1 C 1,4 C
_ Min-Zeit 02:30 02:30 12:30 00:00 - 09:00 - - - - - 02:30 03:30
Minimum _ 5,6 C 5,3 C 88 % 998 hPa - 12,6 km/h (3 Bft) - - - - - 4,7 C -7,0 C
_ Max-Zeit 18:39 12:15 00:00 10:00 15:39 17:24 - - 00:00 12:15 15:39 18:39 20:45
Maximum _ 10,3 C 10,6 C 95 % 1003 hPa 0,3 l/m 40,6 km/h
S (6 Bft)
- - 0 min 39,9 klux 15,00 min 9,4 C 5,4 C
Durchschnitt _ 8,2 C 7,9 C 93 % 1000 hPa #0,9 l/m 25,2 km/h (4 Bft) S - #0 min. 3,10 klux #45 min. 7,2 C -0,4 C